This is the latest recevied weather packets stored in our database for station/object WA9SDJ-13. If no packets are shown the sender has not sent any weather packets the latest 1 day(s).
| Time | Temp. | Humidity | Pressure | Rain* | Wind** | Luminosity | Snow |
|---|---|---|---|---|---|---|---|
| 1777997522 | 10.56° C | 87% | 1008.5 hPa | 2.29 mm | 1.79 m/s, 49° | 70 W/m² | - |
| 1777997462 | 10.56° C | 87% | 1008.5 hPa | 2.29 mm | 1.79 m/s, 34° | 69 W/m² | - |
| 1777997402 | 10.56° C | 87% | 1008.5 hPa | 2.29 mm | 1.34 m/s, 39° | 65 W/m² | - |
| 1777997340 | 10.56° C | 87% | 1008.6 hPa | 2.29 mm | 1.34 m/s, 28° | 62 W/m² | - |
| 1777997278 | 10.56° C | 87% | 1008.6 hPa | 2.29 mm | 1.34 m/s, 31° | 56 W/m² | - |
| 1777997217 | 10.56° C | 87% | 1008.7 hPa | 2.54 mm | 1.34 m/s, 28° | 49 W/m² | - |
| 1777997156 | 10.56° C | 87% | 1008.8 hPa | 2.54 mm | 1.34 m/s, 45° | 42 W/m² | - |
| 1777997094 | 10.56° C | 87% | 1008.9 hPa | 2.79 mm | 0.89 m/s, 47° | 32 W/m² | - |
| 1777997033 | 10.56° C | 87% | 1008.8 hPa | 2.54 mm | 0.89 m/s, 47° | 28 W/m² | - |
| 1777996971 | 10.56° C | 87% | 1008.8 hPa | 2.79 mm | 1.34 m/s, 47° | 26 W/m² | - |
| 1777996907 | 10.56° C | 87% | 1008.9 hPa | 2.79 mm | 1.34 m/s, 47° | 28 W/m² | - |
| 1777996845 | 10.56° C | 87% | 1008.9 hPa | 3.05 mm | 0.89 m/s, 21° | 32 W/m² | - |
| 1777996781 | 10.56° C | 87% | 1009 hPa | 2.79 mm | 0.89 m/s, 0° | 37 W/m² | - |
| 1777996720 | 10.56° C | 87% | 1008.9 hPa | 3.05 mm | 0.45 m/s, 0° | 35 W/m² | - |
| 1777996659 | 10.56° C | 87% | 1009.1 hPa | 3.05 mm | 0.89 m/s, 0° | 30 W/m² | - |
| 1777996594 | 10.56° C | 87% | 1009 hPa | 3.05 mm | 1.34 m/s, 0° | 26 W/m² | - |
| 1777996539 | 10.56° C | 87% | 1009.1 hPa | 3.05 mm | 1.34 m/s, 0° | 25 W/m² | - |
| 1777996471 | 10.56° C | 87% | 1009 hPa | 3.05 mm | 1.79 m/s, 8° | 21 W/m² | - |
| 1777996411 | 10.56° C | 87% | 1009 hPa | 3.05 mm | 1.34 m/s, 330° | 21 W/m² | - |
| 1777996352 | 10.56° C | 87% | 1008.9 hPa | 3.05 mm | 1.34 m/s, 321° | 23 W/m² | - |
| 1777996291 | 10.56° C | 87% | 1008.8 hPa | 3.05 mm | 1.79 m/s, 327° | 28 W/m² | - |
| 1777996230 | 10.56° C | 87% | 1008.8 hPa | 3.05 mm | 1.79 m/s, 344° | 32 W/m² | - |
| 1777996169 | 10.56° C | 87% | 1008.7 hPa | 3.3 mm | 1.34 m/s, 320° | 33 W/m² | - |
| 1777996108 | 10.56° C | 87% | 1008.7 hPa | 3.05 mm | 1.79 m/s, 0° | 33 W/m² | - |
| 1777996046 | 10.56° C | 87% | 1008.7 hPa | 3.05 mm | 1.79 m/s, 0° | 35 W/m² | - |
* Rain latest hour (hover to see other rain measurements)
** Current wind speed in m/s (hover to see current wind gust speed)